This is the latest recevied weather packets stored in our database for station/object KD4IZ-13. If no packets are shown the sender has not sent any weather packets the latest 10 day(s).
| Time | Temp. | Humidity | Pressure | Rain* | Wind** | Luminosity | Snow |
|---|---|---|---|---|---|---|---|
| 1778166743 | 14.44° C | 50% | 1013.7 hPa | 0 mm | - | 811 W/m² | - |
| 1778166440 | 14.44° C | 50% | 1013.8 hPa | 0 mm | - | 625 W/m² | - |
| 1778166137 | 14.44° C | 49% | 1013.6 hPa | 0 mm | - | 820 W/m² | - |
| 1778165832 | 13.33° C | 51% | 1013.9 hPa | 0 mm | - | 922 W/m² | - |
| 1778165530 | 13.33° C | 53% | 1013.7 hPa | 0 mm | - | 927 W/m² | - |
| 1778165226 | 13.89° C | 51% | 1013.5 hPa | 0 mm | - | 888 W/m² | - |
| 1778164924 | 13.33° C | 54% | 1013.6 hPa | 0 mm | - | 790 W/m² | - |
| 1778164621 | 12.78° C | 53% | 1014 hPa | 0 mm | - | 821 W/m² | - |
| 1778164318 | 13.33° C | 54% | 1013.8 hPa | 0 mm | - | 558 W/m² | - |
| 1778164013 | 12.22° C | 57% | 1014.2 hPa | 0 mm | - | 802 W/m² | - |
| 1778163710 | 12.22° C | 56% | 1014.3 hPa | 0 mm | - | 150 W/m² | - |
| 1778163406 | 12.22° C | 56% | 1014.2 hPa | 0 mm | - | 199 W/m² | - |
| 1778163104 | 12.22° C | 57% | 1014.4 hPa | 0 mm | - | 188 W/m² | - |
| 1778162800 | 11.67° C | 57% | 1014.4 hPa | 0 mm | - | 209 W/m² | - |
| 1778162497 | 11.67° C | 58% | 1014.5 hPa | 0 mm | - | 158 W/m² | - |
| 1778162194 | 11.67° C | 58% | 1014.5 hPa | 0 mm | - | 290 W/m² | - |
| 1778161892 | 11.67° C | 59% | 1014.5 hPa | 0 mm | - | 239 W/m² | - |
| 1778161588 | 12.22° C | 58% | 1014.6 hPa | 0 mm | - | 376 W/m² | - |
| 1778161284 | 12.78° C | 61% | 1014.7 hPa | 0 mm | - | 402 W/m² | - |
| 1778160980 | 12.78° C | 60% | 1014.4 hPa | 0 mm | - | 432 W/m² | - |
| 1778160678 | 12.22° C | 60% | 1014.6 hPa | 0 mm | - | 452 W/m² | - |
| 1778160375 | 12.22° C | 60% | 1014.6 hPa | 0 mm | - | 626 W/m² | - |
| 1778160071 | 11.67° C | 63% | 1014.4 hPa | 0 mm | - | 586 W/m² | - |
| 1778159768 | 12.22° C | 64% | 1014.5 hPa | 0 mm | - | 599 W/m² | - |
| 1778159466 | 11.67° C | 67% | 1014.6 hPa | 0 mm | - | 468 W/m² | - |
* Rain latest hour (hover to see other rain measurements)
** Current wind speed in m/s (hover to see current wind gust speed)